Litchfield, IL

10:58 AM CST on February 23, 2017 (GMT -0600)
Litchfield

Weather History for K3LF - April, 2013

Change the Weather History Date:

Tuesday, April 23, 2013

  Actual Average (KALN) Record (KALN)
Temperature  
Mean Temperature 48 °F -  
Max Temperature 58 °F 65 °F 80 °F (2007)
Min Temperature 38 °F 48 °F 34 °F (2012)
Degree Days  
Heating Degree Days 17    
Moisture  
Dew Point 47 °F    
Average Humidity 87    
Maximum Humidity 98    
Minimum Humidity 67    
Precipitation  
Precipitation 0.63 in - - ()
Sea Level Pressure  
Sea Level Pressure 29.96 in    
Wind  
Wind Speed 9 mph (South)    
Max Wind Speed 23 mph    
Max Gust Speed 26 mph    
Visibility 8 miles    
Events Rain , Thunderstorm    
Averages and records for this station are not official NWS values.
T = Trace of Precipitation, MM = Missing Value Source: NWS Daily Summary

Daily Weather History Graph

Daily Weather History Graph

Search for Another Location

Airport or City:

Trip Planner

Search our weather history database for the weather conditions in past years. The results will help you decide how hot, cold, wet, or windy it might be!

Date:

Astronomy

Apr. 23, 2013 Rise Set
Actual Time 6:10 AM CDT 7:44 PM CDT
Civil Twilight 5:42 AM CDT 8:12 PM CDT
Nautical Twilight 5:08 AM CDT 8:46 PM CDT
Astronomical Twilight 4:32 AM CDT 9:22 PM CDT
Moon 5:39 PM CDT 4:37 AM CDT
Length of Visible Light 14h 30m
Length of Day
13h 33m
Waxing Gibbous, 94% of the Moon is Illuminated
Apr 23
Waxing Gibbous
Apr 25
Full
May 2
Last Quarter
May 9
New
May 17
First Quarter

Hourly Weather History & Observations

Time (CDT) Temp. Windchill Dew Point Humidity Pressure Visibility Wind Dir Wind Speed Gust Speed Precip Events Conditions
12:15 AM 56.8 °F - 47.3 °F 70% 30.04 in 10.0 mi South 4.6 mph - N/A   Mostly Cloudy
12:35 AM 55.0 °F - 48.7 °F 79% 30.04 in 10.0 mi SSE 4.6 mph - N/A   Overcast
12:55 AM 56.8 °F - 46.6 °F 69% 30.03 in 10.0 mi SE 8.1 mph - N/A   Mostly Cloudy
1:15 AM 57.2 °F - 46.2 °F 67% 30.01 in 10.0 mi SE 9.2 mph - N/A   Scattered Clouds
1:35 AM 57.0 °F - 46.2 °F 67% 30.01 in 10.0 mi SE 6.9 mph - N/A   Clear
1:55 AM 56.5 °F - 46.2 °F 68% 30.00 in 10.0 mi SE 8.1 mph - N/A   Scattered Clouds
2:15 AM 55.8 °F - 46.8 °F 72% 30.01 in 10.0 mi SE 5.8 mph - N/A   Scattered Clouds
2:35 AM 55.9 °F - 46.8 °F 71% 30.01 in 10.0 mi SE 4.6 mph - N/A   Mostly Cloudy
2:55 AM 54.5 °F - 46.6 °F 75% 30.00 in 10.0 mi ESE 5.8 mph - N/A   Scattered Clouds
3:15 AM 54.9 °F - 46.8 °F 74% 30.01 in 10.0 mi SE 4.6 mph - N/A   Scattered Clouds
3:35 AM 54.5 °F - 46.6 °F 75% 30.01 in 10.0 mi SE 5.8 mph - N/A   Scattered Clouds
3:55 AM 54.3 °F - 46.6 °F 75% 30.00 in 10.0 mi SE 5.8 mph - N/A   Clear
4:15 AM 54.0 °F - 46.6 °F 76% 29.99 in 10.0 mi SE 6.9 mph - N/A   Clear
4:35 AM 54.5 °F - 46.4 °F 74% 29.97 in 10.0 mi SE 9.2 mph - N/A   Clear
4:55 AM 54.9 °F - 46.4 °F 73% 29.95 in 10.0 mi SSE 11.5 mph - N/A   Clear
5:15 AM 55.4 °F - 46.4 °F 72% 29.95 in 10.0 mi SSE 9.2 mph - N/A   Clear
5:55 AM 55.0 °F - 46.6 °F 73% 29.96 in 10.0 mi South 8.1 mph - N/A   Clear
6:15 AM 54.5 °F - 46.9 °F 76% 29.97 in 10.0 mi SSE 8.1 mph - N/A   Clear
6:35 AM 55.0 °F - 46.6 °F 73% 29.97 in 10.0 mi SSE 8.1 mph - N/A   Mostly Cloudy
6:55 AM 55.4 °F - 46.6 °F 72% 29.97 in 10.0 mi SSE 8.1 mph - N/A   Mostly Cloudy
7:15 AM 55.8 °F - 46.6 °F 71% 29.96 in 10.0 mi SSE 10.4 mph - N/A   Scattered Clouds
7:35 AM 55.8 °F - 46.9 °F 72% 29.96 in 10.0 mi SSE 9.2 mph - N/A   Mostly Cloudy
7:55 AM 55.9 °F - 47.3 °F 73% 29.96 in 10.0 mi SSE 11.5 mph - N/A   Overcast
8:15 AM 55.9 °F - 47.5 °F 73% 29.96 in 10.0 mi SSE 10.4 mph - N/A   Overcast
8:35 AM 54.7 °F - 48.6 °F 80% 29.99 in 10.0 mi SSW 11.5 mph - N/A   Drizzle
8:55 AM 53.2 °F - 49.6 °F 88% 30.01 in 7.0 mi WSW 8.1 mph - N/A Rain Light Rain
9:15 AM 53.6 °F - 50.2 °F 88% 30.02 in 7.0 mi SW 10.4 mph - 0.01 in Rain Light Rain
9:35 AM 53.1 °F - 50.4 °F 91% 30.01 in 7.0 mi SW 6.9 mph - 0.02 in Rain Rain
9:55 AM 53.1 °F - 50.9 °F 92% 30.01 in 5.0 mi SW 5.8 mph - 0.03 in   Drizzle
10:15 AM 53.6 °F - 51.8 °F 94% 30.01 in 5.0 mi WSW 8.1 mph - 0.01 in Rain Light Rain
10:35 AM 53.8 °F - 51.8 °F 93% 30.01 in 7.0 mi WSW 6.9 mph - 0.01 in   Light Drizzle
10:55 AM 54.1 °F - 52.3 °F 94% 30.00 in 7.0 mi SW 5.8 mph - 0.01 in   Light Drizzle
11:15 AM 55.0 °F - 53.2 °F 94% 29.98 in 7.0 mi SSE 8.1 mph - N/A   Light Drizzle
11:35 AM 55.4 °F - 53.8 °F 94% 29.97 in 10.0 mi SSE 6.9 mph - N/A   Mostly Cloudy
11:55 AM 55.6 °F - 53.1 °F 91% 29.98 in 10.0 mi SSW 4.6 mph - N/A   Mostly Cloudy
12:15 PM 55.9 °F - 53.6 °F 92% 29.94 in 10.0 mi South 6.9 mph - N/A Rain Light Rain
12:35 PM 56.7 °F - 54.1 °F 91% 29.93 in 7.0 mi South 5.8 mph - 0.01 in Rain Light Rain
12:55 PM 58.1 °F - 55.0 °F 90% 29.91 in 10.0 mi South 4.6 mph - 0.01 in   Mostly Cloudy
1:15 PM 57.7 °F - 54.7 °F 90% 29.90 in 10.0 mi South 5.8 mph - N/A   Mostly Cloudy
1:35 PM 57.7 °F - 55.0 °F 91% 29.90 in 10.0 mi SSE 8.1 mph - N/A   Overcast
1:55 PM 58.1 °F - 54.9 °F 89% 29.90 in 10.0 mi South 11.5 mph - N/A   Overcast
2:15 PM 58.1 °F - 54.7 °F 88% 29.90 in 10.0 mi South 12.7 mph - N/A   Overcast
2:35 PM 57.4 °F - 54.7 °F 91% 29.90 in 7.0 mi South 10.4 mph - N/A   Overcast
2:55 PM 57.2 °F - 54.9 °F 92% 29.89 in 7.0 mi SSE 10.4 mph - N/A Rain Light Rain
3:15 PM 56.8 °F - 55.2 °F 94% 29.89 in 4.0 mi South 9.2 mph - N/A Rain Rain
3:35 PM 56.5 °F - 55.4 °F 96% 29.88 in 2.5 mi SSW 10.4 mph - 0.01 in   Light Drizzle
3:55 PM 56.3 °F - 55.4 °F 97% 29.88 in 1.8 mi WSW 8.1 mph - 0.02 in   Drizzle
4:15 PM 47.8 °F - 47.1 °F 97% 29.88 in 4.0 mi NW 16.1 mph 23.0 mph N/A Rain Light Rain
4:35 PM 45.9 °F 37.8 °F 45.0 °F 97% 29.88 in 5.0 mi NW 21.9 mph 25.3 mph 0.01 in Rain Light Rain
4:55 PM 44.4 °F 36.9 °F 43.5 °F 97% 29.88 in 5.0 mi NNW 17.3 mph 24.2 mph 0.02 in Rain Rain
5:15 PM 43.0 °F 34.2 °F 42.1 °F 97% 29.90 in 3.0 mi NNW 20.7 mph 26.5 mph 0.04 in Rain Heavy Rain
5:35 PM 42.3 °F 34.1 °F 41.0 °F 95% 29.89 in 7.0 mi NNW 17.3 mph 21.9 mph 0.08 in Rain , Thunderstorm Light Thunderstorms and Rain
5:55 PM 41.5 °F 31.9 °F 40.5 °F 96% 29.90 in 1.8 mi NNW 23.0 mph 26.5 mph 0.11 in   Unknown
6:15 PM 41.4 °F 32.7 °F 40.5 °F 97% 29.92 in 4.0 mi NNW 18.4 mph 25.3 mph 0.01 in Rain , Thunderstorm Light Thunderstorms and Rain
6:35 PM 41.0 °F 31.9 °F 40.1 °F 97% 29.90 in 5.0 mi NNW 19.6 mph - 0.06 in Rain , Thunderstorm Light Thunderstorms and Rain
6:55 PM 41.0 °F 31.9 °F 40.1 °F 97% 29.91 in 10.0 mi NNW 19.6 mph 23.0 mph 0.06 in Thunderstorm Overcast
7:15 PM 40.6 °F 31.2 °F 39.6 °F 96% 29.90 in 4.0 mi North 20.7 mph - 0.04 in Rain Heavy Rain
7:35 PM 41.0 °F 33.1 °F 39.9 °F 96% 29.91 in 10.0 mi NNW 15.0 mph 20.7 mph 0.07 in Rain , Thunderstorm Light Thunderstorms and Rain
7:55 PM 40.1 °F 29.9 °F 39.2 °F 97% 29.92 in 3.0 mi NNW 23.0 mph - 0.13 in Rain Light Rain
8:15 PM 40.1 °F 31.3 °F 39.4 °F 97% 29.92 in 4.0 mi North 17.3 mph - 0.04 in Rain Light Rain
8:35 PM 40.1 °F 31.6 °F 38.8 °F 95% 29.95 in 10.0 mi NNW 16.1 mph 25.3 mph 0.05 in Rain Light Rain
8:55 PM 40.1 °F 31.6 °F 39.2 °F 97% 29.94 in 4.0 mi NNW 16.1 mph 21.9 mph 0.08 in Rain Rain
9:15 PM 39.7 °F 31.9 °F 39.2 °F 98% 29.96 in 7.0 mi NNW 13.8 mph - 0.02 in Rain Rain
9:35 PM 39.7 °F 31.9 °F 39.0 °F 97% 29.96 in 7.0 mi NNW 13.8 mph - 0.04 in Rain Rain
9:55 PM 39.6 °F 31.0 °F 38.5 °F 96% 29.98 in 5.0 mi NW 16.1 mph 19.6 mph 0.06 in Rain Rain
10:15 PM 39.4 °F 31.8 °F 38.3 °F 96% 29.98 in 5.0 mi NNW 12.7 mph 19.6 mph 0.03 in Rain Light Rain
10:35 PM 39.2 °F 31.6 °F 38.3 °F 97% 29.98 in 7.0 mi NNW 12.7 mph - 0.05 in Rain Rain
10:55 PM 39.2 °F 30.2 °F 38.1 °F 96% 29.97 in 10.0 mi NNW 17.3 mph 20.7 mph 0.06 in Rain Light Rain
11:15 PM 39.2 °F 30.2 °F 37.8 °F 95% 30.00 in 10.0 mi NW 17.3 mph 23.0 mph N/A Rain Rain
11:35 PM 38.8 °F 29.7 °F 37.8 °F 96% 29.99 in 7.0 mi NNW 17.3 mph 21.9 mph 0.04 in Rain Light Rain
11:55 PM 39.0 °F 31.0 °F 37.8 °F 95% 30.00 in 7.0 mi NNW 13.8 mph - 0.04 in Rain Rain